Location: Cressonsacq
(49.4581°N, 2.5665°E)
Time: 08:01:27
(UTC+00:00)

Daily predictions for brighter satellites

Satellite Brightness Start Highest point End
(mag) Time Altitude Azimuth Time Altitude Azimuth Time Altitude Azimuth
ATLAS CENTAUR R/B 2.1 17:14:06 10° SW 17:18:46 61° NW 17:23:15 10° NE
NOAA 6 4.1 17:15:22 10° SSE 17:20:28 66° ENE 17:25:36 10° N
SJ-11-01 4.4 17:16:26 10° SSE 17:21:09 84° WSW 17:25:55 10° NNW
AQUARIUS 4.4 17:21:45 10° S 17:26:14 77° WSW 17:30:45 10° NNW
Cosmos 468 Rocket 4.2 17:22:04 10° NNW 17:27:07 48° ENE 17:32:04 10° SE
Cosmos 1844 Rocket 2.8 17:24:40 10° NNW 17:30:08 52° NE 17:35:34 10° SE
COSMO-SKYMED 1 3.2 17:27:36 10° NNE 17:31:39 36° E 17:35:39 10° SSE
COBE Rocket 4.4 17:30:29 10° S 17:35:10 63° W 17:39:48 10° NNW
SL-08 R/B 3.4 17:31:33 10° NNE 17:36:32 78° ESE 17:41:28 10° S
Cosmos 1328 3.7 17:35:58 10° S 17:39:56 81° E 17:43:54 10° NNE
Lacrosse 5 2.3 17:35:14 10° SSW 17:40:08 49° SE 17:44:52 11° ENE
Cosmos 1954 Rocket 4.2 17:35:36 10° S 17:40:39 50° ESE 17:45:41 10° NNE
USA 215 3.6 17:34:38 10° SE 17:41:11 70° SW 17:47:45 10° WNW
CZ-4B DEB 4.3 17:37:08 10° SE 17:42:26 55° ENE 17:47:46 10° N
Cosmos 1763 Rocket 3.4 17:37:35 10° NNW 17:42:48 77° ENE 17:47:54 10° SSE
CZ-4B R/B 3.8 17:38:55 10° ESE 17:43:39 33° ENE 17:48:29 10° N
Lacrosse 5 rocket 1.2 17:40:17 10° NW 17:43:49 54° NNE 17:47:24 10° ESE
Cosmos 1726 Rocket 3.8 17:40:55 10° N 17:45:04 44° ENE 17:49:11 10° SSE
Cosmos 1461 3.6 17:41:33 10° S 17:45:30 37° ESE 17:49:26 11° NE
Meteor 1-11 4.4 17:40:29 10° S 17:46:05 52° E 17:51:41 10° NNE
ATLAS 2AS CENTAUR R/B 2.8 17:39:42 10° NW 17:46:48 82° SW 17:53:27 10° SE
Cosmos 1892 2.7 17:43:29 10° S 17:47:08 58° E 17:50:51 10° NNE
Cosmos 1844 3.8 17:43:38 10° NNW 17:49:25 63° ENE 17:55:08 10° SE
SL-08 ROCKET BODY 4.3 17:43:53 10° N 17:49:48 82° E 17:55:39 10° S
IKONOS-2 4.5 17:46:30 10° NNE 17:50:47 88° ESE 17:55:02 10° SSW
Gblst 52 Del rocket 4.2 17:46:52 10° WSW 17:52:33 74° SSE 17:57:10 15° ENE
Cosmos 1825 2.5 17:50:10 10° SSE 17:53:39 42° E 17:57:10 10° NNE
Cosmos 540 Rocket 3.4 17:48:52 10° NNW 17:54:00 63° ENE 17:59:05 10° SE
Cosmos 2219 Rocket 3.5 17:51:09 10° SE 17:54:59 19° E 17:57:32 14° ENE
Cosmos 2278 4.2 17:49:31 10° SW 17:55:08 63° WNW 18:00:50 10° NNE
Cosmos 2360 Rocket 2.7 17:50:02 10° S 17:55:14 40° ESE 18:00:30 10° NE
Cosmos 841 Rocket 3.9 17:51:15 10° NNW 17:56:18 43° ENE 18:01:17 10° SE
CZ-4C R/B 3.2 17:57:27 10° NNE 18:01:14 55° E 18:04:48 10° S
Cosmos 1745 Rocket 4.5 17:55:42 10° N 18:01:27 36° ENE 18:07:06 10° SE
Cosmos 2278 Rocket 3.6 17:59:41 10° N 18:03:45 20° NE 18:05:53 16° ENE
CZ-4 R/B 2.2 18:00:33 10° SE 18:04:06 29° ENE 18:07:37 10° N
Okean O Rocket 2.4 18:02:25 10° SE 18:06:16 30° ENE 18:10:09 10° N
Cosmos 2333 Rocket 2.9 18:02:02 10° SSE 18:07:02 33° ESE 18:11:22 13° NE
Cosmos 2322 Rocket 2.1 18:02:29 10° SSW 18:08:02 70° ESE 18:13:39 10° NNE
USA 281 4.5 18:03:15 10° NNE 18:09:15 39° NW 18:15:14 10° WSW
IRIDIUM 114 4.5 18:05:05 10° N 18:10:12 51° E 18:15:15 10° SSE
Okean-O 4.4 18:11:23 14° NE 18:11:23 14° NE 18:12:56 10° NNE
SKYMED 3 4.4 18:08:34 10° NNE 18:12:41 64° ESE 18:16:48 10° S
BlueWalker 3 2.5 18:09:07 10° WNW 18:12:53 47° N 18:14:55 24° ENE
RESURS DK-1 2.2 18:08:48 10° NNW 18:12:56 82° ENE 18:17:03 10° SSE
Cosmos 1340 2.8 18:10:11 10° N 18:13:44 45° ENE 18:17:15 10° SSE
ATLAS 5 CENTAUR R/B 3.8 18:11:48 10° NW 18:14:15 15° N 18:16:56 10° NNE
IRIDIUM 103 4.3 18:14:13 10° N 18:19:24 60° E 18:24:33 10° SSE
SKYMED 2 3.7 18:15:33 10° N 18:19:55 77° WNW 18:24:15 10° SSW
ISS -0.6 18:19:26 10° WSW 18:20:50 12° SW 18:22:15 10° SSW
Cosmos 1606 3.6 18:17:44 10° NNE 18:20:57 27° ENE 18:20:57 27° ENE
SL-4 R/B 1.7 18:17:53 10° WNW 18:21:23 64° N 18:22:55 32° E
COSMOS 2428 4.0 18:18:24 10° SE 18:21:43 19° ESE 18:21:43 19° ESE
In-Cosmos 22 Rocket 4.2 18:16:59 10° S 18:22:48 81° E 18:28:39 10° NNE
SL-16 R/B 2.5 18:17:45 10° SW 18:23:24 69° WNW 18:29:06 10° NNE
Cosmos 2058 Rocket 3.0 18:20:58 10° N 18:25:22 65° ENE 18:29:46 10° SSE
Cosmos 676 Rocket 4.1 18:20:07 10° SSW 18:25:25 83° WNW 18:30:43 10° NNE
IGS 5A 4.1 18:26:03 29° E 18:27:03 33° ENE 18:30:45 10° N
Cosmos 1553 Rocket 3.9 18:21:07 10° S 18:27:09 66° E 18:33:16 10° NNE
Cosmos 2333 4.5 18:21:53 10° S 18:27:10 45° ESE 18:31:01 18° NE
SL-08 R/B 4.4 18:21:23 10° N 18:27:39 79° E 18:33:58 10° SSE
MOS 1-B 4.3 18:22:18 10° SSE 18:28:04 74° ENE 18:33:54 10° NNW
YAOGAN 1 2.4 18:24:45 10° SSE 18:29:03 79° ENE 18:33:24 10° NNW
CSL-04 Rocket 4.3 18:29:40 26° E 18:31:25 32° ENE 18:36:08 10° N
Cosmos 1980 Rocket 4.2 18:30:15 10° W 18:34:41 23° NW 18:39:09 10° N
Feng Yun 1-1 Rocket 4.3 18:29:25 10° SE 18:34:47 54° ENE 18:40:05 10° N
Genesis I 3.1 18:33:41 10° SSW 18:37:37 66° SE 18:38:52 40° ENE
IRIDIUM 106 4.2 18:32:27 10° N 18:37:43 84° E 18:42:56 10° S
BREEZE-M DEB (TANK) 3.9 18:23:57 10° SW 18:38:07 49° SSE 18:40:18 30° ESE
Cosmos 1633 2.5 18:34:56 10° SSW 18:38:16 71° W 18:41:38 10° N
Cosmos 1943 Rocket 3.9 18:35:33 10° N 18:39:00 16° NNE 18:39:19 16° NE
Cosmos 2322 4.1 18:42:27 10° S 18:47:42 39° ESE 18:48:47 36° E
Cosmos 44 Rocket 3.4 18:46:40 10° SSW 18:51:10 48° ESE 18:51:43 46° E
Cosmos 1869 4.1 18:50:53 10° NNW 18:54:41 52° W 18:58:30 10° S
ATLAS CENTAUR R/B 3.8 18:54:55 10° WNW 18:58:07 18° NNW 19:00:39 12° NNE
S3M 3.9 18:56:35 10° S 19:02:57 74° E 19:09:19 10° NNE
Landsat 7 4.0 19:11:41 53° NE 19:11:41 53° NE 19:15:43 10° N
SJ-6B 3.9 19:18:32 37° N 19:18:32 37° N 19:21:02 10° NNW
Lacrosse 4 Rocket 3.9 19:15:53 10° N 19:16:37 12° N 19:16:37 12° N
Resurs 01 Rocket 4.0 19:22:58 12° N 19:22:58 12° N 19:23:26 10° N
Lacrosse 5 rocket 2.7 19:19:22 10° WNW 19:22:30 28° SW 19:22:52 27° SW
Lacrosse 5 2.4 19:18:08 10° W 19:23:09 53° NNW 19:24:05 47° NNE
CZ-4B R/B 4.2 19:18:58 10° S 19:24:04 45° W 19:29:18 10° NNW
Cosmos 1461 4.3 19:20:17 10° WSW 19:24:21 38° NW 19:25:36 31° N
Cosmos 2315 Rocket 3.9 19:18:16 10° S 19:24:32 67° E 19:30:52 10° NNE
Spot 1 4.3 19:25:56 61° WSW 19:25:56 61° WSW 19:29:28 10° SSW
BREEZE-M DEB (TANK) 3.9 19:24:25 10° W 19:28:23 54° S 19:30:46 39° SE
Cosmos 1814 Rocket 4.1 19:23:22 10° NNW 19:28:44 76° WSW 19:30:18 47° S
Cosmos 2219 Rocket 2.2 19:32:40 10° SSW 19:38:16 78° WNW 19:39:20 59° N
CZ-4 R/B 3.2 19:35:16 10° SSW 19:38:56 31° W 19:42:34 10° NNW
Cosmos 2360 Rocket 3.3 19:33:55 10° WSW 19:39:14 41° NW 19:43:00 19° N
USA 81 4.3 19:35:53 10° SSW 19:41:07 66° W 19:46:24 10° N
Okean O Rocket 3.2 19:38:32 10° SSW 19:42:31 34° W 19:46:35 10° NNW
Gblst 52 Del rocket 4.2 19:38:49 10° W 19:44:07 70° NNW 19:44:07 70° NNW
Okean-O 4.4 19:48:55 25° NNW 19:48:55 25° NNW 19:50:47 10° NNW
Cosmos 2278 Rocket 2.5 19:43:07 10° NNW 19:47:46 58° N 19:47:46 58° N
Cosmos 2333 Rocket 3.0 19:45:40 10° SW 19:51:08 48° NW 19:53:26 31° N
BlueWalker 3 4.0 19:47:54 10° WNW 19:49:43 26° WNW 19:49:43 26° WNW
Cosmos 2322 Rocket 4.0 19:47:55 10° W 19:52:37 27° NW 19:56:27 14° N
ATLAS 5 CENTAUR R/B 4.0 19:56:43 10° NNW 19:58:21 17° N 19:58:21 17° N
SL-4 R/B 4.4 19:57:08 10° WNW 19:58:14 19° W 19:58:14 19° W
Cosmos 2369 Rocket 4.3 19:59:49 10° N 20:01:13 15° N 20:01:13 15° N
COSMOS 2428 3.6 20:00:13 10° SSW 20:03:49 41° SW 20:03:49 41° SW
CSL-04 Rocket 4.5 20:11:16 45° WSW 20:11:36 46° W 20:16:47 10° NNW
Cosmos 1943 Rocket 3.9 20:18:27 10° NNW 20:20:51 25° NNW 20:20:51 25° NNW
